User: anonymous   Login
Location: Goheenville
(40.9070°N, 79.3720°W)
Time: 23:33:39
(UTC-04:00)
Language:

Cosmos 1727 Rocket - Orbit

View from above orbital plane
View from above orbital plane
View from above satellite
View from above satellite

Ground track
Ground track

The orbit data is extracted from the following two-line orbital elements,

1 16511U 86008B   16126.17942418 -.00000005  00000-0 -20349-4 0  9997
2 16511  82.9440 162.5025 0023731 345.9794  74.4490 13.75809464520171
Epoch (UTC): 05 May 2016 04:18:22
Eccentricity: 0.0023731
inclination: 82.9440°
perigee height: 961 km
apogee height: 996 km
right ascension of ascending node: 162.5025°
argument of perigee: 345.9794°
revolutions per day: 13.75809464
mean anomaly at epoch: 74.4490°
orbit number at epoch: 52017

The dashed part of the orbit path shows where the satellite is in the earth's shadow,  

DLR